ELECTRON R/B (44227 NORAD) Tracking and Keplerian Element Data

This shows tracking and keplerian element data for the satellite.

Feedback or suggestion? Click here.




ElementValue
Catalog44227
NameELECTRON R/B
Epoch Orbit314
Epoch Day145.95253636
Epoch Year2019
RAAN114.2296
Inclination40.0254
Eccentricity0.000878
Argument of Perigee59.1052
Mean Anonmoly301.0629
Mean Motion15.21061698
Decay Rate4.65E-06
L11 44227U 19026C 19145.95253636 .00000465 00000-0 28555-4 0 9990
L22 44227 40.0254 114.2296 0008780 59.1052 301.0629 15.21061698 3144

Live tracking and technical data element details for ELECTRON R/B (NORAD 44227). ELECTRON R/B can be tracked NOW for your location showing map with azimuth and elevation plus other details from your city location.

Track the satellite on the map from your city or location and see movement details for azimuth, elevation, latitude, longitude, range, height, and movement on the map or in text.







IsCatalogInMostPopularTable: catalog: 44227, numindb: 4
Update: records affected: 1



GetName: 44227 ELECTRON R/B

Hit Count: updated at: Sun, 26 May 2019 07:34:47 GMT